Location: Oshawa
(43.9000°N, 78.8670°W)
Time: 04:40:03
(UTC-05:00)

Cosmos 839 Rocket - Visible Passes

Search period start: 09 December 2016 00:00
Search period end: 19 December 2016 00:00
Orbit: 965 x 2088 km, 65.9° (Epoch: 08 December)

Date Brightness Start Highest point End Pass type
(mag) Time Alt. Az. Time Alt. Az. Time Alt. Az.
09 Dec 5.9 04:20:12 20° N 04:22:16 23° NNE 04:27:11 10° E visible
09 Dec 4.0 06:16:50 11° NW 06:23:21 84° WSW 06:29:28 10° SSE visible
09 Dec 6.9 19:24:02 10° SSE 19:25:14 13° SSE 19:25:14 13° SSE visible
09 Dec 7.1 21:20:36 10° SSW 21:21:56 15° SSW 21:21:56 15° SSW visible
10 Dec 6.2 03:39:50 18° NNE 03:39:50 18° NNE 03:43:54 10° ENE visible
10 Dec 4.4 05:36:28 19° NNW 05:41:24 64° NE 05:47:28 10° SE visible
10 Dec 6.8 18:45:11 10° SE 18:45:30 10° SE 18:45:30 10° SE visible
10 Dec 6.6 20:38:46 10° SSW 20:42:11 23° SSW 20:42:11 23° SSW visible
11 Dec 6.7 02:59:30 12° NE 02:59:30 12° NE 03:00:27 10° NE visible
11 Dec 5.0 04:56:09 27° N 04:59:17 43° NE 05:05:06 10° ESE visible
11 Dec 4.8 06:53:22 10° NW 06:59:03 33° WSW 07:04:28 10° S visible
11 Dec 6.2 19:57:25 10° S 20:02:26 29° SSE 20:02:26 29° SSE visible
11 Dec 7.1 21:57:52 10° SW 21:59:07 14° WSW 21:59:07 14° WSW visible
12 Dec 5.5 04:15:52 29° NNE 04:16:59 31° NE 04:22:24 10° E visible
12 Dec 4.2 06:12:31 17° NW 06:17:24 54° WSW 06:23:20 10° SSE visible
12 Dec 6.0 19:16:37 10° SSE 19:22:40 28° SE 19:22:40 28° SE visible
12 Dec 6.5 21:15:14 10° SW 21:19:21 26° SW 21:19:21 26° SW visible
13 Dec 6.0 03:35:38 22° NE 03:35:38 22° NE 03:39:22 10° E visible
13 Dec 3.9 05:32:17 31° NW 05:35:36 86° WSW 05:41:44 10° SSE visible
13 Dec 6.1 18:36:33 10° SSE 18:42:52 22° ESE 18:42:52 22° ESE visible
13 Dec 5.8 20:33:00 10° SSW 20:39:33 42° SSW 20:39:33 42° SSW visible
14 Dec 6.7 02:55:27 12° ENE 02:55:27 12° ENE 02:56:05 10° ENE visible
14 Dec 4.3 04:52:05 49° N 04:53:39 63° NE 04:59:43 10° SE visible
14 Dec 5.3 06:48:45 11° WNW 06:52:52 21° WSW 06:57:16 10° SSW visible
14 Dec 6.4 17:57:48 10° SE 18:02:25 14° E 18:03:03 14° E visible
14 Dec 5.2 19:51:12 10° SSW 19:59:43 55° SSE 19:59:43 55° SSE visible
14 Dec 6.8 21:53:14 10° WSW 21:56:24 21° W 21:56:24 21° W visible
15 Dec 5.0 04:11:57 42° ENE 04:11:57 42° ENE 04:17:20 10° ESE visible
15 Dec 4.6 06:08:37 24° WNW 06:11:20 34° WSW 06:16:46 10° S visible
15 Dec 5.2 19:09:52 10° S 19:19:47 46° ESE 19:19:51 46° ESE visible
15 Dec 6.0 21:10:14 10° SW 21:16:31 37° WSW 21:16:31 37° WSW visible
16 Dec 6.0 03:31:51 22° ENE 03:31:51 22° ENE 03:34:36 10° E visible
16 Dec 4.0 05:28:31 49° WNW 05:29:40 56° WSW 05:35:37 10° SSE visible
16 Dec 5.5 18:29:05 10° SSE 18:37:59 32° ESE 18:39:55 30° E visible
16 Dec 5.2 20:27:37 10° SW 20:36:35 63° WSW 20:36:35 63° WSW visible
16 Dec 7.2 22:32:35 10° W 22:33:15 12° W 22:33:15 12° W visible
17 Dec 4.0 04:48:27 75° SSE 04:48:27 75° SSE 04:54:00 10° SSE visible
17 Dec 5.7 06:45:07 11° W 06:46:35 12° W 06:48:42 10° WSW visible
17 Dec 6.0 17:49:04 10° SSE 17:56:18 22° ESE 17:59:54 17° ENE visible
17 Dec 4.7 19:45:24 10° SSW 19:55:56 86° ESE 19:56:35 79° NE visible
17 Dec 6.6 21:48:56 10° W 21:53:14 23° WNW 21:53:14 23° WNW visible
18 Dec 5.2 04:08:25 36° ESE 04:08:25 36° ESE 04:11:57 10° SE visible
18 Dec 5.2 06:05:05 21° WSW 06:05:09 21° WSW 06:09:36 10° SSW visible
18 Dec 6.4 17:10:27 10° SE 17:14:46 14° E 17:18:44 10° ENE visible
18 Dec 4.9 19:03:38 10° SSW 19:13:59 64° ESE 19:16:31 48° ENE visible
18 Dec 5.9 21:05:35 10° WSW 21:13:10 37° WNW 21:13:10 37° WNW visible
